Flag for South Africa Weather past 2 weeks in Cape Town, South Africa

Now
66 °F

Passing clouds.


Feels Like: 66 °F
Forecast: 65 / 75 °F
Wind: 12 mph from Southeast

Location: Cape Town International Airport

Current Time: Dec 27, 2014 at 8:00:50 AM

Latest Report: Dec 27, 2014 at 7:00 AM


Visibility: N/A

Pressure: 29.86 "Hg

Humidity: 60%

Dew point: 52 °F

Location of Cape TownLocation

Historic Weather in Cape Town — Graph

°F

Cape Town temperature yesterday

Maximum temperature yesterday: 73 °F (at 1:00 PM)
Minimum temperature yesterday: 59 °F (at 12:00 AM)
Average temperature yesterday: 66 °F

Past Weeks' High & Low Weather Summary

 TemperatureHumidityPressure
High79 °F (Dec 13, 12:00 PM)88% (Dec 12, 7:00 AM)30.12 "Hg (Dec 12, 7:00 AM)
Low59 °F (Dec 24, 4:00 AM)37% (Dec 13, 12:00 PM)29.83 "Hg (Dec 27, 2:00 AM)
Average68 °F63%29.99 "Hg
* Reported Dec 12 7:00 AM — Dec 27 7:00 AM, Cape Town, Weather by CustomWeather, © 2014

Note: Actual official high and low records may vary slightly from our data, if they occured in-between our weather recording intervals... More about our weather records

Advertising

Cape Town weather history for previous 24 hours

 ConditionsComfort  
Time TempWeatherWind HumidityBarometerVisibility
7:00 AM
Dec 27
66 °FPassing clouds.12 mph60%29.86 "HgN/A
6:00 AM63 °FPassing clouds.10 mph68%29.83 "HgN/A
5:00 AM63 °FSunny.12 mph68%29.83 "Hg10 mi
4:00 AM64 °FClear.16 mph64%29.83 "Hg10 mi
3:00 AM59 °FClear.6 mph72%29.83 "Hg10 mi
2:00 AM64 °FClear.8 mph64%29.83 "Hg10 mi
1:00 AM64 °FClear.14 mph64%29.86 "Hg10 mi
12:00 AM64 °FClear.20 mph60%29.86 "Hg10 mi
11:00 PM
Dec 26
64 °FClear.13 mph60%29.86 "Hg10 mi
10:00 PM64 °FPassing clouds.20 mph60%29.89 "HgN/A
9:00 PM66 °FPassing clouds.20 mph60%29.89 "HgN/A
8:00 PM66 °FPassing clouds.21 mph60%29.89 "HgN/A
7:00 PM68 °FPassing clouds.25 mph56%29.86 "HgN/A
6:00 PM70 °FPassing clouds.28 mph53%29.86 "HgN/A
5:00 PM70 °FPassing clouds.30 mph53%29.86 "HgN/A
4:00 PM72 °FPassing clouds.29 mph53%29.89 "HgN/A
3:00 PM72 °FPassing clouds.28 mph53%29.89 "HgN/A
2:00 PM73 °FPassing clouds.24 mph53%29.92 "HgN/A
1:00 PM73 °FPassing clouds.22 mph50%29.95 "HgN/A
12:00 PM72 °FPassing clouds.21 mph53%29.95 "HgN/A
11:00 AM72 °FPassing clouds.17 mph53%29.98 "HgN/A
10:00 AM70 °FPassing clouds.15 mph53%29.98 "HgN/A
9:00 AM68 °FPassing clouds.15 mph53%29.98 "HgN/A
8:00 AM66 °FPassing clouds.15 mph56%29.98 "HgN/A
Weather by CustomWeather, © 2014

See weather overviewHow to use our weather pages